Regional Weather Roundup
Issued by NWS

Home | Current Version | Previous Version | Text Only | Print | Product List | Glossary On
Versions: 1 2 3 4 5 6 7 8 9 10 11 12 13 14 15 16 17 18 19 20 21 22 23 24 25 26 27 28 29 30 31 32 33 34 35 36 37 38 39 40 41 42 43 44 45 46 47 48 49 50
000
ASUS44 KMEG 251810
RWRTN
TENNESSEE HOURLY STATE WEATHER ROUNDUP
NATIONAL WEATHER SERVICE MEMPHIS TN
100 PM CDT SAT OCT 25 2014

TNZ002-004-019-021-049-052-054-088>092-251900-
WEST TENNESSEE

CITY           SKY/WX    TMP DP  RH WIND       PRES   REMARKS
MEMPHIS INTL   MOSUNNY   78  62  57 SW10      30.07F
NWS MEMPHIS      N/A     78 N/A N/A MISG        N/A
JACKSON        SUNNY     77  61  57 SW6       30.05F
DYERSBURG      SUNNY     75  55  50 NW3       30.06F
UNION CITY     SUNNY     73  61  64 VRB3      30.02F
PARIS          SUNNY     73  61  64 VRB3      30.04F
HUNTINGDON     SUNNY     75  60  59 VRB3      30.04F
LEXINGTON      SUNNY     75  61  60 VRB6      30.04F
SAVANNAH       SUNNY     77  63  61 CALM      30.06F
$$

TNZ008-025-027-028-033-062-065-066-251900-
NORTH MIDDLE TENNESSEE

CITY           SKY/WX    TMP DP  RH WIND       PRES   REMARKS
NASHVILLE      MOSUNNY   77  58  51 W5        30.04F
CLARKSVILLE    MOSUNNY   74  60  61 W5        30.03F
SMYRNA         SUNNY     76  59  55 W7        30.05F
COOKEVILLE     PTSUNNY   72  55  56 S3        30.06F
CROSSVILLE     PTSUNNY   67  48  50 W5        30.08F
$$

TNZ061-075-076-078-094-096-097-251900-
SOUTH MIDDLE TENNESSEE

CITY           SKY/WX    TMP DP  RH WIND       PRES   REMARKS
FAYETTEVILLE   SUNNY     72  55  56 W6        30.08F
TULLAHOMA      PTSUNNY   72  55  56 W6        30.08F
WINCHESTER     SUNNY     70  54  56 VRB5      30.08F
MCMINNVILLE    PTSUNNY   72  57  60 CALM      30.07F
COLUMBIA       SUNNY     77  63  61 VRB5      30.03F
SHELBYVILLE    PTSUNNY   73  59  60 SW5       30.07F
$$

TNZ017-018-042-046-047-251900-
NORTHEAST TENNESSEE

CITY           SKY/WX    TMP DP  RH WIND       PRES   REMARKS
TRI CITIES     SUNNY     64  48  56 CALM      30.05F
ELIZABETHTON   CLEAR     64  46  52 SW6       30.05F
$$

TNZ012-013-036-069-073-074-251900-
CENTRAL EAST TENNESSEE

CITY           SKY/WX    TMP DP  RH WIND       PRES   REMARKS
KNOXVILLE      SUNNY     67  48  50 W3        30.06F
OAK RIDGE      SUNNY     69  48  47 VRB5      30.07F
GATLINBURG     CLEAR     68  46  45 N6        30.06S
MORRISTOWN     CLEAR     66  48  52 NW3       30.07F
$$

TNZ083-085-099-251900-
SOUTHEAST TENNESSEE

CITY           SKY/WX    TMP DP  RH WIND       PRES   REMARKS
CHATTANOOGA    SUNNY     71  50  47 CALM      30.07F
$$

SKY/WX REPORTED AS FAIR MEANS FEW OR NO CLOUDS BELOW
12 THOUSAND FEET.




USA.gov is the U.S. government's official web portal to all federal, state and local government web resources and services.